ATLAS 5 CENTAUR DEB, 55855

Orbit data source: Space-Track

ATLAS 5 CENTAUR DEB, 55855 is space debris in HEO originally from a launch on Wed, 17 Oct 2018 UTC launched from the Air Force Eastern Test Range (AFETR). Debris objects in space refer to the collection of defunct objects orbiting the Earth. Examples of debris include non-operational satellites, rocket bodies, and fragments generated from explosions, collisions, or faulty payload assembly.

Loading next visibility...
Identifier
55855, 2018-079HH
Orbit
HEO
Country
Flag of USUS
Related business
Flag of USUnited Launch Alliance/Lockheed Martin (US)
Manufacturer
ULA Decatur
Mission
Spacecraft
Bus & Motor
Unknown
Mass
Unknown
Launch date (UTC)
2018-10-17 (7 years ago)
Launch vehicle
Unknown
Launch site
Air Force Eastern Test Range (AFETR)
Object type
Payload
Rocket body
Debris
Shape & HBR
Unknown shape, 1.1 m
Radar Cross Section
RCS unknown

Expand to show TLE details & history
Last TLE update: 3 weeks ago

TLE from 3 weeks ago
0 ATLAS 5 CENTAUR DEB
1 55855U 18079HH  25273.80847211 -.00000162  00000-0  00000-0 0  9993
2 55855  13.0604  40.2915 4617787 311.2065  17.2815  1.90884660 13126
Epoch: 2025-09-30T19:24Z
TLE epoch observation values (Epoch: 2025-09-30T19:24:11.990Z)
Latitude
-0°
Longitude
99.46634°
Altitude
10,156.023 km
Speed
5.805 km/s
True Right ascension
02h 41m 14s
True Declination
0° 00' 00"
Sunlit
Object was in daylight at epoch
Visualization orbit readout
Latitude
Unknown
Longitude
Unknown
Altitude
Unknown
Speed
Unknown
Apparent Right ascension
Unknown
Apparent Declination
Unknown
Sunlit
N/A
Visualization observer readout
Local Sidereal Time
01:18:17
Azimuth
Unknown
Elevation
Unknown
Doppler factor
Unknown
Orbital elements
Apogee altitude
33,751.938 km
Perigee altitude
8,397.602 km
Semi-major axis
27,452.907 km
Eccentricity
0.46178
Inclination
13.0604°
RAAN
40.2915°
Arg. of periapsis
311.2065°
True anomaly
48.90114°
Mean anomaly
17.2815°
Eccentric anomaly
30.84825°
Mean motion
0.47716 °/min
Orbital period
754.47 mins
BSTAR
0
Loading maneuver chart data...
Computing Atmospheric mass density...

Documentation

Showing up to 5 results
|